| time (UTC) | temp F | wind direction | speed MPH | gust MPH | rain 1hr in | rain 24hr in | rain mn in | humidity % | barometer mb |
| 20260506115018 | 49 | 102 | 0.0 | 4.0 | 0.00 | 0.00 | 0.00 | 94 | 1017.2 |
| 20260506114519 | 49 | 102 | 1.0 | 4.0 | 0.00 | 0.00 | 0.00 | 94 | 1017.3 |
| 20260506114019 | 49 | 80 | 0.0 | 1.0 | 0.00 | 0.00 | 0.00 | 93 | 1017.3 |
| 20260506113518 | 49 | 80 | 0.0 | 1.0 | 0.00 | 0.00 | 0.00 | 93 | 1017.3 |
| 20260506113019 | 49 | 80 | 0.0 | 1.0 | 0.00 | 0.00 | 0.00 | 93 | 1017.4 |
| 20260506112518 | 49 | 80 | 0.0 | 0.0 | 0.00 | 0.00 | 0.00 | 93 | 1017.3 |
| 20260506112017 | 49 | 80 | 0.0 | 3.0 | 0.00 | 0.00 | 0.00 | 93 | 1017.3 |
| 20260506111518 | 49 | 80 | 1.0 | 3.0 | 0.00 | 0.00 | 0.00 | 93 | 1017.3 |
| 20260506111017 | 50 | 80 | 0.0 | 2.0 | 0.00 | 0.00 | 0.00 | 93 | 1017.3 |
| 20260506110516 | 50 | 80 | 0.0 | 2.0 | 0.00 | 0.00 | 0.00 | 93 | 1017.3 |
| 20260506110017 | 50 | 80 | 0.0 | 1.0 | 0.00 | 0.00 | 0.00 | 93 | 1017.2 |
| 20260506105518 | 50 | 80 | 0.0 | 1.0 | 0.00 | 0.00 | 0.00 | 94 | 1017.2 |
| 20260506105017 | 50 | 80 | 0.0 | 0.0 | 0.00 | 0.00 | 0.00 | 94 | 1017.3 |
| 20260506104517 | 50 | 80 | 0.0 | 0.0 | 0.00 | 0.00 | 0.00 | 94 | 1017.2 |
| 20260506104017 | 50 | 80 | 0.0 | 0.0 | 0.00 | 0.00 | 0.00 | 94 | 1017.2 |
| 20260506103515 | 50 | 80 | 0.0 | 0.0 | 0.00 | 0.00 | 0.00 | 93 | 1017.2 |
| 20260506103016 | 50 | 80 | 0.0 | 0.0 | 0.00 | 0.00 | 0.00 | 93 | 1017.3 |
| 20260506102516 | 50 | 80 | 0.0 | 0.0 | 0.00 | 0.00 | 0.00 | 93 | 1017.2 |
| 20260506102017 | 50 | 80 | 0.0 | 1.0 | 0.00 | 0.00 | 0.00 | 93 | 1017.2 |
| 20260506101755 | 51 | 80 | 0.0 | 1.0 | 0.00 | 0.00 | 0.00 | 93 | 1017.2 |
| 20260506101017 | 51 | 80 | 0.0 | 1.0 | 0.00 | 0.00 | 0.00 | 93 | 1017.1 |
| 20260506100517 | 51 | 80 | 0.0 | 2.0 | 0.00 | 0.00 | 0.00 | 93 | 1017.1 |
| 20260506100255 | 51 | 80 | 0.0 | 3.0 | 0.00 | 0.00 | 0.00 | 93 | 1017.1 |
| 20260506095753 | 51 | 80 | 1.0 | 3.0 | 0.00 | 0.00 | 0.00 | 93 | 1017.1 |
| 20260506095016 | 51 | 65 | 0.0 | 2.0 | 0.00 | 0.00 | 0.00 | 93 | 1017.1 |
| 20260506094515 | 51 | 63 | 0.0 | 2.0 | 0.00 | 0.00 | 0.00 | 93 | 1017.1 |
| 20260506094016 | 51 | 63 | 0.0 | 2.0 | 0.00 | 0.00 | 0.00 | 93 | 1017.1 |
| 20260506093515 | 51 | 63 | 1.0 | 3.0 | 0.00 | 0.00 | 0.00 | 93 | 1017.1 |
| 20260506093016 | 51 | 63 | 0.0 | 3.0 | 0.00 | 0.00 | 0.00 | 93 | 1017.1 |
| 20260506092517 | 51 | 58 | 1.0 | 2.0 | 0.00 | 0.00 | 0.00 | 93 | 1017.2 |
| 20260506092014 | 51 | 58 | 0.0 | 2.0 | 0.00 | 0.00 | 0.00 | 93 | 1017.2 |
| 20260506091514 | 51 | 58 | 0.0 | 2.0 | 0.00 | 0.00 | 0.00 | 93 | 1017.1 |
| 20260506091255 | 51 | 55 | 1.0 | 2.0 | 0.00 | 0.00 | 0.00 | 93 | 1017.2 |
| 20260506090514 | 51 | 38 | 0.0 | 1.0 | 0.00 | 0.00 | 0.00 | 92 | 1017.4 |
| 20260506090014 | 52 | 38 | 0.0 | 1.0 | 0.00 | 0.00 | 0.00 | 92 | 1017.4 |
| 20260506085515 | 52 | 38 | 0.0 | 4.0 | 0.00 | 0.00 | 0.00 | 92 | 1017.4 |
| 20260506085015 | 52 | 37 | 1.0 | 4.0 | 0.00 | 0.00 | 0.00 | 93 | 1017.3 |
| 20260506084514 | 52 | 34 | 0.0 | 2.0 | 0.00 | 0.00 | 0.00 | 93 | 1017.4 |
| 20260506084015 | 52 | 34 | 0.0 | 2.0 | 0.00 | 0.00 | 0.00 | 93 | 1017.5 |
| 20260506083544 | 52 | 34 | 0.0 | 0.0 | 0.00 | 0.00 | 0.00 | 92 | 1017.5 |
| 20260506083538 | 52 | 34 | 0.0 | 1.0 | 0.00 | 0.00 | 0.00 | 93 | 1017.5 |
| 20260506082514 | 52 | 34 | 0.0 | 1.0 | 0.00 | 0.00 | 0.00 | 92 | 1017.5 |
| 20260506082015 | 52 | 34 | 0.0 | 3.0 | 0.00 | 0.00 | 0.00 | 92 | 1017.6 |
| 20260506081516 | 52 | 32 | 0.0 | 3.0 | 0.00 | 0.00 | 0.00 | 92 | 1017.5 |
| 20260506081015 | 53 | 31 | 0.0 | 1.0 | 0.00 | 0.00 | 0.00 | 92 | 1017.5 |
| 20260506080514 | 53 | 31 | 0.0 | 0.0 | 0.00 | 0.00 | 0.00 | 92 | 1017.5 |
| 20260506073513 | 53 | 31 | 0.0 | 1.0 | 0.00 | 0.00 | 0.00 | 92 | 1017.4 |
| 20260506073014 | 53 | 31 | 0.0 | 1.0 | 0.00 | 0.00 | 0.00 | 92 | 1017.4 |
| 20260506072514 | 54 | 31 | 0.0 | 3.0 | 0.00 | 0.00 | 0.00 | 92 | 1017.4 |
| 20260506072014 | 54 | 31 | 0.0 | 3.0 | 0.00 | 0.00 | 0.00 | 92 | 1017.3 |
| 20260506071750 | 54 | 8 | 0.0 | 2.0 | 0.00 | 0.00 | 0.00 | 91 | 1017.4 |
| 20260506071027 | 54 | 7 | 0.0 | 2.0 | 0.00 | 0.00 | 0.00 | 91 | 1017.2 |
| 20260506071021 | 54 | 8 | 0.0 | 2.0 | 0.00 | 0.00 | 0.00 | 91 | 1017.3 |
| 20260506062511 | 54 | 303 | 0.0 | 2.0 | 0.00 | 0.00 | 0.00 | 90 | 1017.0 |
| 20260506062013 | 54 | 302 | 0.0 | 2.0 | 0.00 | 0.00 | 0.00 | 90 | 1017.0 |
| 20260506061513 | 54 | 300 | 0.0 | 2.0 | 0.00 | 0.00 | 0.00 | 90 | 1017.0 |
| 20260506061013 | 54 | 299 | 1.0 | 4.0 | 0.00 | 0.00 | 0.00 | 90 | 1016.9 |
| 20260506060512 | 54 | 295 | 0.0 | 4.0 | 0.00 | 0.00 | 0.00 | 90 | 1016.9 |
| 20260506051009 | 55 | 285 | 2.0 | 4.0 | 0.00 | 0.00 | 0.00 | 89 | 1016.6 |
| 20260506050512 | 55 | 290 | 1.0 | 3.0 | 0.00 | 0.00 | 0.00 | 89 | 1016.5 |
| 20260506045011 | 55 | 34 | 1.0 | 5.0 | 0.00 | 0.00 | 0.00 | 89 | 1016.4 |
| 20260506044510 | 55 | 303 | 1.0 | 5.0 | 0.00 | 0.00 | 0.00 | 88 | 1016.3 |
| 20260506044011 | 55 | 316 | 1.0 | 3.0 | 0.00 | 0.00 | 0.00 | 88 | 1016.3 |
| 20260506043510 | 55 | 310 | 0.0 | 5.0 | 0.00 | 0.00 | 0.00 | 88 | 1016.3 |
| 20260506043010 | 55 | 320 | 2.0 | 5.0 | 0.00 | 0.00 | 0.00 | 88 | 1016.2 |
| 20260506042510 | 55 | 307 | 1.0 | 4.0 | 0.00 | 0.00 | 0.00 | 88 | 1016.2 |
| 20260506042011 | 55 | 293 | 2.0 | 5.0 | 0.00 | 0.00 | 0.00 | 87 | 1016.2 |
| 20260506041509 | 56 | 288 | 2.0 | 5.0 | 0.00 | 0.00 | 0.00 | 87 | 1016.1 |
| 20260506041009 | 56 | 298 | 2.0 | 4.0 | 0.00 | 0.00 | 0.00 | 87 | 1016.0 |
| 20260506040511 | 56 | 288 | 1.0 | 5.0 | 0.00 | 0.00 | 0.00 | 87 | 1016.0 |
| 20260506040008 | 56 | 358 | 2.0 | 5.0 | 0.00 | 0.00 | 0.00 | 86 | 1015.9 |
| 20260506035507 | 56 | 261 | 1.0 | 5.0 | 0.00 | 0.00 | 0.00 | 86 | 1015.8 |
| 20260506035008 | 56 | 305 | 2.0 | 4.0 | 0.00 | 0.00 | 0.00 | 86 | 1015.7 |
| 20260506034507 | 56 | 286 | 1.0 | 4.0 | 0.00 | 0.00 | 0.00 | 85 | 1015.6 |
| 20260506034007 | 56 | 293 | 2.0 | 6.0 | 0.00 | 0.00 | 0.00 | 85 | 1015.6 |
| 20260506033513 | 56 | 292 | 1.0 | 6.0 | 0.00 | 0.00 | 0.00 | 85 | 1015.5 |
| 20260506033014 | 56 | 290 | 2.0 | 7.0 | 0.00 | 0.00 | 0.00 | 85 | 1015.5 |
| 20260506032745 | 56 | 293 | 2.0 | 7.0 | 0.00 | 0.00 | 0.00 | 84 | 1015.4 |
| 20260506032001 | 57 | 282 | 2.0 | 6.0 | 0.00 | 0.00 | 0.00 | 84 | 1015.3 |
| 20260506031732 | 57 | 298 | 1.0 | 12.0 | 0.00 | 0.00 | 0.00 | 84 | 1015.2 |
| 20260506030952 | 57 | 299 | 4.0 | 12.0 | 0.00 | 0.00 | 0.00 | 83 | 1015.0 |
| 20260506030728 | 57 | 279 | 2.0 | 6.0 | 0.00 | 0.00 | 0.00 | 83 | 1015.0 |
| 20260506025950 | 57 | 285 | 2.0 | 10.0 | 0.00 | 0.00 | 0.00 | 83 | 1014.9 |
| 20260506025720 | 57 | 323 | 3.0 | 10.0 | 0.00 | 0.00 | 0.00 | 82 | 1014.8 |
| 20260506024943 | 58 | 289 | 4.0 | 9.0 | 0.00 | 0.00 | 0.00 | 81 | 1014.8 |
| 20260506024718 | 58 | 276 | 2.0 | 11.0 | 0.00 | 0.00 | 0.00 | 80 | 1014.6 |
| 20260506024004 | 58 | 306 | 1.0 | 9.0 | 0.00 | 0.00 | 0.00 | 79 | 1014.6 |
| 20260506023952 | 58 | 313 | 4.0 | 11.0 | 0.00 | 0.00 | 0.00 | 80 | 1014.6 |
| 20260506022937 | 59 | 309 | 2.0 | 6.0 | 0.00 | 0.00 | 0.00 | 78 | 1014.6 |
| 20260506022714 | 59 | 341 | 3.0 | 6.0 | 0.00 | 0.00 | 0.00 | 77 | 1014.5 |
| 20260506021938 | 60 | 309 | 3.0 | 6.0 | 0.00 | 0.00 | 0.00 | 76 | 1014.5 |
| 20260506021435 | 60 | 288 | 3.0 | 11.0 | 0.00 | 0.00 | 0.00 | 75 | 1014.6 |
| 20260506020935 | 60 | 309 | 2.0 | 11.0 | 0.00 | 0.00 | 0.00 | 73 | 1014.5 |
| 20260506020434 | 61 | 286 | 3.0 | 10.0 | 0.00 | 0.00 | 0.00 | 72 | 1014.5 |
| 20260506015938 | 61 | 290 | 5.0 | 11.0 | 0.00 | 0.00 | 0.00 | 71 | 1014.3 |
| 20260506015438 | 62 | 317 | 2.0 | 11.0 | 0.00 | 0.00 | 0.00 | 70 | 1014.3 |
| 20260506014933 | 62 | 292 | 3.0 | 7.0 | 0.00 | 0.00 | 0.00 | 69 | 1014.2 |
| 20260506014707 | 62 | 266 | 3.0 | 10.0 | 0.00 | 0.00 | 0.00 | 68 | 1014.2 |
| 20260506014222 | 63 | 340 | 4.0 | 10.0 | 0.00 | 0.00 | 0.00 | 67 | 1014.2 |
| 20260506014216 | 63 | 336 | 2.0 | 11.0 | 0.00 | 0.00 | 0.00 | 67 | 1014.2 |
| 20260506012928 | 63 | 1 | 1.0 | 11.0 | 0.00 | 0.00 | 0.00 | 67 | 1014.1 |
| 20260506012429 | 63 | 295 | 3.0 | 14.0 | 0.00 | 0.00 | 0.00 | 66 | 1014.2 |
| 20260506011923 | 63 | 292 | 3.0 | 14.0 | 0.00 | 0.00 | 0.00 | 68 | 1014.2 |
| 20260506011425 | 63 | 319 | 4.0 | 12.0 | 0.00 | 0.00 | 0.00 | 67 | 1014.1 |
| 20260506011213 | 64 | 321 | 5.0 | 11.0 | 0.00 | 0.00 | 0.00 | 65 | 1014.2 |
| 20260506010928 | 63 | 285 | 4.0 | 12.0 | 0.00 | 0.00 | 0.00 | 66 | 1014.1 |
| 20260506005920 | 64 | 286 | 4.0 | 12.0 | 0.00 | 0.00 | 0.00 | 66 | 1014.1 |
| 20260506005413 | 65 | 306 | 5.0 | 12.0 | 0.00 | 0.00 | 0.00 | 65 | 1014.2 |
| 20260506004912 | 65 | 307 | 2.0 | 10.0 | 0.00 | 0.00 | 0.00 | 66 | 1014.1 |
| 20260506004415 | 65 | 17 | 3.0 | 10.0 | 0.00 | 0.00 | 0.00 | 66 | 1014.2 |
| 20260506003910 | 66 | 32 | 6.0 | 10.0 | 0.00 | 0.00 | 0.00 | 65 | 1014.1 |
| 20260506003409 | 66 | 347 | 2.0 | 6.0 | 0.00 | 0.00 | 0.00 | 66 | 1014.1 |
| 20260506002906 | 66 | 0 | 2.0 | 12.0 | 0.00 | 0.00 | 0.00 | 67 | 1014.0 |
| 20260506002407 | 65 | 62 | 4.0 | 12.0 | 0.00 | 0.00 | 0.00 | 67 | 1014.0 |
| 20260506001920 | 66 | 329 | 1.0 | 7.0 | 0.00 | 0.00 | 0.00 | 68 | 1013.9 |
| 20260506001403 | 65 | 0 | 3.0 | 10.0 | 0.00 | 0.00 | 0.00 | 69 | 1013.9 |
| 20260506000903 | 65 | 283 | 6.0 | 10.0 | 0.00 | 0.00 | 0.00 | 69 | 1013.9 |
| 20260506000405 | 65 | 306 | 4.0 | 10.0 | 0.00 | 0.00 | 0.00 | 69 | 1013.9 |
| 20260505235903 | 65 | 296 | 3.0 | 10.0 | 0.00 | 0.00 | 0.00 | 73 | 1013.9 |
| 20260505235403 | 65 | 296 | 3.0 | 11.0 | 0.00 | 0.00 | 0.00 | 71 | 1013.9 |
| 20260505234903 | 65 | 259 | 4.0 | 11.0 | 0.00 | 0.00 | 0.00 | 73 | 1013.9 |
| 20260505234403 | 65 | 272 | 5.0 | 10.0 | 0.00 | 0.00 | 0.00 | 72 | 1013.9 |
| 20260505233902 | 65 | 274 | 3.0 | 9.0 | 0.00 | 0.00 | 0.00 | 73 | 1013.9 |
| 20260505233403 | 65 | 307 | 4.0 | 10.0 | 0.00 | 0.00 | 0.00 | 73 | 1014.0 |
| 20260505232904 | 65 | 286 | 4.0 | 12.0 | 0.00 | 0.00 | 0.00 | 74 | 1014.0 |
| 20260505232404 | 64 | 306 | 5.0 | 12.0 | 0.00 | 0.00 | 0.00 | 74 | 1014.0 |
| 20260505231904 | 64 | 271 | 6.0 | 12.0 | 0.00 | 0.00 | 0.00 | 73 | 1013.9 |
| 20260505231405 | 64 | 272 | 3.0 | 13.0 | 0.00 | 0.00 | 0.00 | 74 | 1013.9 |
| 20260505230903 | 64 | 292 | 6.0 | 13.0 | 0.00 | 0.00 | 0.00 | 73 | 1014.0 |
| 20260505230403 | 64 | 303 | 4.0 | 13.0 | 0.00 | 0.00 | 0.00 | 74 | 1014.0 |
| 20260505225903 | 64 | 285 | 5.0 | 13.0 | 0.00 | 0.00 | 0.00 | 73 | 1014.1 |
| 20260505225634 | 64 | 306 | 4.0 | 11.0 | 0.00 | 0.00 | 0.00 | 74 | 1014.1 |
| 20260505225134 | 64 | 137 | 4.0 | 15.0 | 0.00 | 0.00 | 0.00 | 74 | 1014.2 |
| 20260505224402 | 64 | 309 | 4.0 | 15.0 | 0.00 | 0.00 | 0.00 | 73 | 1014.2 |
| 20260505223901 | 64 | 309 | 5.0 | 11.0 | 0.00 | 0.00 | 0.00 | 74 | 1014.3 |
| 20260505223401 | 64 | 314 | 5.0 | 11.0 | 0.00 | 0.00 | 0.00 | 73 | 1014.4 |
| 20260505223131 | 64 | 279 | 4.0 | 12.0 | 0.00 | 0.00 | 0.00 | 73 | 1014.3 |
| 20260505222401 | 63 | 299 | 6.0 | 13.0 | 0.00 | 0.00 | 0.00 | 73 | 1014.4 |
| 20260505221900 | 63 | 283 | 7.0 | 16.0 | 0.00 | 0.00 | 0.00 | 73 | 1014.5 |
| 20260505221646 | 64 | 259 | 8.0 | 16.0 | 0.00 | 0.00 | 0.00 | 71 | 1014.4 |
| 20260505220901 | 64 | 296 | 4.0 | 11.0 | 0.00 | 0.00 | 0.00 | 72 | 1014.4 |
| 20260505220401 | 64 | 259 | 5.0 | 11.0 | 0.00 | 0.00 | 0.00 | 73 | 1014.4 |
| 20260505215900 | 64 | 285 | 4.0 | 11.0 | 0.00 | 0.00 | 0.00 | 72 | 1014.5 |
| 20260505215359 | 64 | 290 | 6.0 | 11.0 | 0.00 | 0.00 | 0.00 | 71 | 1014.6 |
| 20260505214903 | 64 | 283 | 5.0 | 11.0 | 0.00 | 0.00 | 0.00 | 69 | 1014.8 |
| 20260505214402 | 64 | 307 | 3.0 | 10.0 | 0.00 | 0.00 | 0.00 | 70 | 1014.7 |
| 20260505213901 | 64 | 283 | 3.0 | 10.0 | 0.00 | 0.00 | 0.00 | 72 | 1014.7 |
| 20260505213403 | 63 | 250 | 4.0 | 11.0 | 0.00 | 0.00 | 0.00 | 73 | 1014.9 |
| 20260505212901 | 62 | 228 | 5.0 | 11.0 | 0.00 | 0.00 | 0.00 | 74 | 1014.8 |
| 20260505212401 | 62 | 250 | 4.0 | 15.0 | 0.00 | 0.00 | 0.00 | 74 | 1014.8 |
| 20260505212132 | 62 | 292 | 6.0 | 15.0 | 0.00 | 0.00 | 0.00 | 73 | 1014.7 |
| 20260505211401 | 63 | 171 | 5.0 | 13.0 | 0.00 | 0.00 | 0.00 | 72 | 1014.8 |
| 20260505211133 | 62 | 310 | 5.0 | 12.0 | 0.00 | 0.00 | 0.00 | 73 | 1014.9 |
| 20260505210400 | 62 | 269 | 5.0 | 12.0 | 0.00 | 0.00 | 0.00 | 74 | 1014.8 |
| 20260505205901 | 62 | 302 | 6.0 | 11.0 | 0.00 | 0.00 | 0.00 | 73 | 1015.0 |
| 20260505205634 | 62 | 272 | 4.0 | 12.0 | 0.00 | 0.00 | 0.00 | 73 | 1014.9 |
| 20260505204900 | 62 | 302 | 7.0 | 12.0 | 0.00 | 0.00 | 0.00 | 72 | 1014.8 |
| 20260505204401 | 62 | 296 | 4.0 | 13.0 | 0.00 | 0.00 | 0.00 | 71 | 1014.9 |
| 20260505203859 | 63 | 312 | 6.0 | 13.0 | 0.00 | 0.00 | 0.00 | 70 | 1014.9 |
| 20260505203401 | 64 | 283 | 7.0 | 13.0 | 0.00 | 0.00 | 0.00 | 69 | 1015.0 |
| 20260505202900 | 64 | 324 | 4.0 | 14.0 | 0.00 | 0.00 | 0.00 | 71 | 1014.9 |
| 20260505202400 | 63 | 344 | 7.0 | 14.0 | 0.00 | 0.00 | 0.00 | 72 | 1014.8 |
| 20260505201901 | 62 | 296 | 3.0 | 14.0 | 0.00 | 0.00 | 0.00 | 73 | 1014.8 |
| 20260505201359 | 62 | 258 | 6.0 | 14.0 | 0.00 | 0.00 | 0.00 | 72 | 1015.0 |
| 20260505200900 | 62 | 269 | 7.0 | 13.0 | 0.00 | 0.00 | 0.00 | 73 | 1014.9 |
| 20260505200359 | 62 | 237 | 8.0 | 13.0 | 0.00 | 0.00 | 0.00 | 72 | 1014.9 |
| 20260505195900 | 62 | 266 | 3.0 | 18.0 | 0.00 | 0.00 | 0.00 | 73 | 1014.9 |
| 20260505195400 | 61 | 290 | 4.0 | 18.0 | 0.00 | 0.00 | 0.00 | 73 | 1014.9 |
| 20260505194859 | 61 | 258 | 6.0 | 14.0 | 0.00 | 0.00 | 0.00 | 72 | 1014.9 |
| 20260505194400 | 61 | 320 | 7.0 | 15.0 | 0.00 | 0.00 | 0.00 | 71 | 1014.9 |
| 20260505193859 | 61 | 173 | 4.0 | 15.0 | 0.00 | 0.00 | 0.00 | 73 | 1014.8 |
| 20260505193629 | 61 | 295 | 7.0 | 16.0 | 0.00 | 0.00 | 0.00 | 73 | 1014.9 |
| 20260505192859 | 62 | 298 | 8.0 | 16.0 | 0.00 | 0.00 | 0.00 | 72 | 1014.9 |
| 20260505192357 | 63 | 259 | 4.0 | 16.0 | 0.00 | 0.00 | 0.00 | 71 | 1014.9 |
| 20260505191857 | 64 | 257 | 6.0 | 16.0 | 0.00 | 0.00 | 0.00 | 69 | 1015.0 |
| 20260505191357 | 65 | 302 | 4.0 | 10.0 | 0.00 | 0.00 | 0.00 | 70 | 1015.0 |
| 20260505190858 | 64 | 251 | 3.0 | 10.0 | 0.00 | 0.00 | 0.00 | 72 | 1015.0 |
| 20260505190357 | 64 | 306 | 4.0 | 11.0 | 0.00 | 0.00 | 0.00 | 73 | 1015.1 |
| 20260505185858 | 63 | 286 | 6.0 | 11.0 | 0.00 | 0.00 | 0.00 | 73 | 1015.2 |
| 20260505185356 | 63 | 293 | 4.0 | 11.0 | 0.00 | 0.00 | 0.00 | 73 | 1015.0 |
| 20260505185127 | 63 | 244 | 4.0 | 11.0 | 0.00 | 0.00 | 0.00 | 73 | 1015.0 |
| 20260505184356 | 63 | 288 | 5.0 | 11.0 | 0.00 | 0.00 | 0.00 | 74 | 1014.9 |
| 20260505183856 | 63 | 231 | 4.0 | 12.0 | 0.00 | 0.00 | 0.00 | 73 | 1015.0 |
| 20260505183357 | 63 | 289 | 5.0 | 12.0 | 0.00 | 0.00 | 0.00 | 73 | 1015.0 |
| 20260505182856 | 63 | 276 | 3.0 | 12.0 | 0.00 | 0.00 | 0.00 | 74 | 1014.9 |
| 20260505182358 | 63 | 279 | 2.0 | 12.0 | 0.00 | 0.00 | 0.00 | 75 | 1015.0 |
| 20260505182130 | 63 | 221 | 4.0 | 12.0 | 0.00 | 0.00 | 0.00 | 74 | 1015.0 |
| 20260505181358 | 63 | 283 | 4.0 | 10.0 | 0.00 | 0.00 | 0.00 | 73 | 1014.9 |
| 20260505180858 | 63 | 303 | 3.0 | 11.0 | 0.00 | 0.00 | 0.00 | 74 | 1014.9 |
| 20260505180355 | 63 | 302 | 4.0 | 11.0 | 0.00 | 0.00 | 0.00 | 73 | 1014.9 |
| 20260505180125 | 63 | 286 | 3.0 | 9.0 | 0.00 | 0.00 | 0.00 | 74 | 1014.9 |
| 20260505175625 | 62 | 176 | 3.0 | 12.0 | 0.00 | 0.00 | 0.00 | 75 | 1015.0 |
| 20260505174855 | 62 | 274 | 3.0 | 12.0 | 0.00 | 0.00 | 0.00 | 76 | 1014.9 |
| 20260505174355 | 62 | 309 | 4.0 | 10.0 | 0.00 | 0.00 | 0.00 | 75 | 1014.8 |
| 20260505173855 | 62 | 292 | 4.0 | 10.0 | 0.00 | 0.00 | 0.00 | 74 | 1014.9 |
| 20260505173355 | 62 | 0 | 4.0 | 6.0 | 0.00 | 0.00 | 0.00 | 74 | 1014.8 |
| 20260505172854 | 62 | 289 | 2.0 | 9.0 | 0.00 | 0.00 | 0.00 | 74 | 1014.7 |
| 20260505172356 | 62 | 279 | 3.0 | 9.0 | 0.00 | 0.00 | 0.00 | 75 | 1014.7 |
| 20260505171855 | 62 | 244 | 2.0 | 7.0 | 0.00 | 0.00 | 0.00 | 74 | 1014.6 |
| 20260505171356 | 62 | 237 | 2.0 | 7.0 | 0.00 | 0.00 | 0.00 | 76 | 1014.6 |
| 20260505170854 | 62 | 254 | 2.0 | 6.0 | 0.00 | 0.00 | 0.00 | 76 | 1014.6 |
| 20260505170633 | 61 | 245 | 2.0 | 7.0 | 0.00 | 0.00 | 0.00 | 76 | 1014.7 |
| 20260505165855 | 61 | 247 | 3.0 | 7.0 | 0.00 | 0.00 | 0.00 | 75 | 1014.8 |
| 20260505165354 | 61 | 305 | 3.0 | 5.0 | 0.00 | 0.00 | 0.00 | 76 | 1014.7 |
| 20260505164854 | 60 | 235 | 1.0 | 5.0 | 0.00 | 0.00 | 0.00 | 76 | 1014.8 |
| 20260505164354 | 60 | 209 | 2.0 | 5.0 | 0.00 | 0.00 | 0.00 | 76 | 1014.8 |
| 20260505163855 | 60 | 272 | 2.0 | 5.0 | 0.00 | 0.00 | 0.00 | 75 | 1014.9 |
| 20260505163357 | 60 | 271 | 3.0 | 5.0 | 0.00 | 0.00 | 0.00 | 74 | 1014.8 |
| 20260505162854 | 61 | 290 | 2.0 | 5.0 | 0.00 | 0.00 | 0.00 | 75 | 1014.7 |
| 20260505162353 | 60 | 216 | 2.0 | 4.0 | 0.00 | 0.00 | 0.00 | 77 | 1014.6 |
| 20260505161854 | 60 | 286 | 1.0 | 5.0 | 0.00 | 0.00 | 0.00 | 77 | 1014.6 |
| 20260505161353 | 59 | 240 | 2.0 | 6.0 | 0.00 | 0.00 | 0.00 | 76 | 1014.5 |
| 20260505160854 | 59 | 286 | 2.0 | 7.0 | 0.00 | 0.00 | 0.00 | 77 | 1014.5 |
| 20260505160353 | 59 | 302 | 4.0 | 7.0 | 0.00 | 0.00 | 0.00 | 78 | 1014.6 |
| 20260505153354 | 58 | 292 | 2.0 | 5.0 | 0.00 | 0.00 | 0.00 | 82 | 1014.5 |
| 20260505152852 | 57 | 300 | 1.0 | 5.0 | 0.00 | 0.00 | 0.00 | 83 | 1014.4 |
| 20260505152352 | 56 | 300 | 2.0 | 5.0 | 0.00 | 0.00 | 0.00 | 84 | 1014.4 |
| 20260505151852 | 56 | 312 | 3.0 | 4.0 | 0.00 | 0.00 | 0.00 | 85 | 1014.4 |
| 20260505151351 | 56 | 290 | 3.0 | 4.0 | 0.00 | 0.00 | 0.00 | 86 | 1014.4 |
| 20260505150853 | 56 | 293 | 1.0 | 3.0 | 0.00 | 0.00 | 0.00 | 87 | 1014.4 |
| 20260505150352 | 56 | 296 | 2.0 | 4.0 | 0.00 | 0.00 | 0.00 | 88 | 1014.4 |
| 20260505140626 | 52 | 295 | 0.0 | 1.0 | 0.00 | 0.00 | 0.00 | 93 | 1014.2 |
| 20260505130124 | 52 | 295 | 0.0 | 0.0 | 0.00 | 0.00 | 0.00 | 91 | 1013.8 |
| 20260505124849 | 52 | 295 | 0.0 | 0.0 | 0.00 | 0.00 | 0.00 | 92 | 1013.9 |
| 20260505124349 | 52 | 295 | 0.0 | 0.0 | 0.00 | 0.00 | 0.00 | 92 | 1013.9 |
| 20260505123849 | 52 | 295 | 0.0 | 0.0 | 0.00 | 0.00 | 0.00 | 92 | 1013.9 |
| 20260505123349 | 52 | 295 | 0.0 | 0.0 | 0.00 | 0.00 | 0.00 | 92 | 1013.9 |
| 20260505123127 | 52 | 295 | 0.0 | 0.0 | 0.00 | 0.00 | 0.00 | 92 | 1014.0 |
| 20260505122350 | 52 | 295 | 0.0 | 1.0 | 0.00 | 0.00 | 0.00 | 92 | 1014.0 |
| 20260505121851 | 52 | 295 | 0.0 | 1.0 | 0.00 | 0.00 | 0.00 | 92 | 1013.9 |
| 20260505121348 | 52 | 295 | 0.0 | 1.0 | 0.00 | 0.00 | 0.00 | 92 | 1014.0 |
| 20260505120848 | 52 | 295 | 0.0 | 1.0 | 0.00 | 0.00 | 0.00 | 92 | 1013.9 |
| 20260505120349 | 52 | 295 | 0.0 | 1.0 | 0.00 | 0.00 | 0.00 | 92 | 1014.1 |
| 20260505120122 | 51 | 295 | 0.0 | 0.0 | 0.00 | 0.00 | 0.00 | 92 | 1014.0 |
| 20260505115623 | 51 | 295 | 0.0 | 0.0 | 0.00 | 0.00 | 0.00 | 92 | 1014.0 |